Kaiser, MO

4:55 PM CST on January 17, 2018 (GMT -0600)
Fine Memorial

Weather History for KAIZ - March, 2014

Change the Weather History Date:

Tuesday, March 11, 2014

  Actual Average Record
Temperature  
Mean Temperature 61 °F -  
Max Temperature 80 °F 52 °F 80 °F (2014)
Min Temperature 42 °F 32 °F 19 °F (2008)
Degree Days  
Heating Degree Days 4    
Growing Degree Days 11 (Base 50)    
Moisture  
Dew Point 42 °F    
Average Humidity 46    
Maximum Humidity 87    
Minimum Humidity 31    
Precipitation  
Precipitation 0.00 in - - ()
Sea Level Pressure  
Sea Level Pressure 29.60 in    
Wind  
Wind Speed 9 mph (SSW)    
Max Wind Speed 16 mph    
Max Gust Speed 28 mph    
Visibility 10 miles    
Events Thunderstorm    
Averages and records for this station are not official NWS values.
T = Trace of Precipitation, MM = Missing Value Source: NWS Daily Summary

Daily Weather History Graph

Daily Weather History Graph

Search for Another Location

Airport or City:

Trip Planner

Search our weather history database for the weather conditions in past years. The results will help you decide how hot, cold, wet, or windy it might be!

Date:

Astronomy

Mar. 11, 2014 Rise Set
Actual Time 7:27 AM CDT 7:13 PM CDT
Civil Twilight 7:01 AM CDT 7:39 PM CDT
Nautical Twilight 6:30 AM CDT 8:10 PM CDT
Astronomical Twilight 5:59 AM CDT 8:41 PM CDT
Moon 2:53 PM CDT (3/11) 4:17 AM CDT (3/11)
Length of Visible Light 12h 38m
Length of Day
11h 46m
Waxing Gibbous, 78% of the Moon is Illuminated
Mar 11
Waxing Gibbous
Mar 16
Full
Mar 23
Last Quarter
Mar 30
New
Apr 7
First Quarter

Hourly Weather History & Observations

Time (CDT) Temp. Windchill Dew Point Humidity Pressure Visibility Wind Dir Wind Speed Gust Speed Precip Events Conditions
12:15 AM 51.8 °F - 28.4 °F 41% 29.74 in 10.0 mi South 4.6 mph - N/A   Clear
12:35 AM 53.6 °F - 28.4 °F 38% 29.74 in 10.0 mi SSW 9.2 mph - N/A   Clear
12:55 AM 59.0 °F - 30.2 °F 34% 29.73 in 10.0 mi SW 10.4 mph - N/A   Clear
1:15 AM 60.8 °F - 30.2 °F 31% 29.72 in 10.0 mi SW 13.8 mph - N/A   Clear
1:35 AM 60.8 °F - 30.2 °F 31% 29.72 in 10.0 mi SW 12.7 mph 21.9 mph N/A   Clear
1:55 AM 60.8 °F - 30.2 °F 31% 29.72 in 10.0 mi SW 12.7 mph 18.4 mph N/A   Clear
2:15 AM 60.8 °F - 30.2 °F 31% 29.72 in 10.0 mi SW 10.4 mph - N/A   Clear
2:35 AM 59.0 °F - 30.2 °F 34% 29.72 in 10.0 mi SW 9.2 mph - N/A   Clear
2:55 AM 59.0 °F - 30.2 °F 34% 29.72 in 10.0 mi SW 10.4 mph - N/A   Clear
3:15 AM 59.0 °F - 32.0 °F 36% 29.71 in 10.0 mi SW 9.2 mph - N/A   Clear
3:35 AM 59.0 °F - 32.0 °F 36% 29.71 in 10.0 mi SW 9.2 mph - N/A   Clear
3:55 AM 55.4 °F - 33.8 °F 44% 29.70 in 10.0 mi SW 10.4 mph - N/A   Clear
4:15 AM 55.4 °F - 33.8 °F 44% 29.70 in 10.0 mi SSW 9.2 mph - N/A   Clear
4:35 AM 55.4 °F - 33.8 °F 44% 29.69 in 10.0 mi SSW 8.1 mph - N/A   Clear
4:55 AM 53.6 °F - 33.8 °F 47% 29.69 in 10.0 mi SW 8.1 mph - N/A   Clear
5:15 AM 53.6 °F - 35.6 °F 51% 29.69 in 10.0 mi SSW 6.9 mph - N/A   Clear
5:35 AM 53.6 °F - 35.6 °F 51% 29.69 in 10.0 mi SSW 6.9 mph - N/A   Clear
5:55 AM 53.6 °F - 35.6 °F 51% 29.68 in 10.0 mi South 6.9 mph - N/A   Clear
6:15 AM 51.8 °F - 35.6 °F 54% 29.68 in 10.0 mi South 8.1 mph - N/A   Clear
6:35 AM 51.8 °F - 35.6 °F 54% 29.68 in 10.0 mi South 8.1 mph - N/A   Clear
6:55 AM 53.6 °F - 37.4 °F 54% 29.67 in 10.0 mi South 8.1 mph - N/A   Clear
7:15 AM 53.6 °F - 37.4 °F 54% 29.67 in 10.0 mi South 6.9 mph - N/A   Clear
7:35 AM 53.6 °F - 39.2 °F 58% 29.66 in 10.0 mi South 6.9 mph - N/A   Clear
7:55 AM 50.0 °F - 37.4 °F 62% 29.66 in 10.0 mi SSE 5.8 mph - N/A   Clear
8:15 AM 51.8 °F - 37.4 °F 58% 29.66 in 10.0 mi SE 5.8 mph - N/A   Clear
8:35 AM 51.8 °F - 37.4 °F 58% 29.66 in 10.0 mi SSE 4.6 mph - N/A   Clear
8:55 AM 53.6 °F - 37.4 °F 54% 29.66 in 10.0 mi SSE 4.6 mph - N/A   Clear
9:15 AM 57.2 °F - 39.2 °F 51% 29.66 in 10.0 mi SSE 4.6 mph - N/A   Clear
9:35 AM 59.0 °F - 42.8 °F 55% 29.65 in 10.0 mi South 5.8 mph - N/A   Clear
9:55 AM 62.6 °F - 44.6 °F 52% 29.65 in 10.0 mi South 4.6 mph - N/A   Clear
10:15 AM 66.2 °F - 46.4 °F 49% 29.64 in 10.0 mi South 13.8 mph 19.6 mph N/A   Clear
10:35 AM 68.0 °F - 46.4 °F 46% 29.63 in 10.0 mi SSW 13.8 mph 19.6 mph N/A   Clear
10:55 AM 69.8 °F - 48.2 °F 46% 29.62 in 10.0 mi SSW 11.5 mph 17.3 mph N/A   Clear
11:15 AM 69.8 °F - 48.2 °F 46% 29.62 in 10.0 mi SSW 9.2 mph - N/A   Clear
11:35 AM 71.6 °F - 48.2 °F 43% 29.61 in 10.0 mi SSW 11.5 mph 16.1 mph N/A   Clear
11:55 AM 73.4 °F - 48.2 °F 41% 29.60 in 10.0 mi SSW 11.5 mph - N/A   Clear
12:15 PM 75.2 °F - 48.2 °F 38% 29.59 in 10.0 mi South 11.5 mph 16.1 mph N/A   Clear
12:35 PM 75.2 °F - 48.2 °F 38% 29.58 in 10.0 mi SSW 13.8 mph 19.6 mph N/A   Clear
12:55 PM 75.2 °F - 48.2 °F 38% 29.57 in 10.0 mi South 15.0 mph 19.6 mph N/A   Clear
1:15 PM 78.8 °F - 48.2 °F 34% 29.56 in 10.0 mi South 9.2 mph 21.9 mph N/A   Clear
1:35 PM 78.8 °F - 46.4 °F 32% 29.54 in 10.0 mi SSW 16.1 mph 24.2 mph N/A   Clear
1:55 PM 78.8 °F - 48.2 °F 34% 29.53 in 10.0 mi South 15.0 mph - N/A   Clear
2:15 PM 78.8 °F - 48.2 °F 34% 29.52 in 10.0 mi South 13.8 mph 19.6 mph N/A   Clear
2:35 PM 78.8 °F - 48.2 °F 34% 29.51 in 10.0 mi SSW 11.5 mph 20.7 mph N/A   Clear
2:55 PM 78.8 °F - 46.4 °F 32% 29.50 in 10.0 mi South 12.7 mph 19.6 mph N/A   Clear
3:15 PM 78.8 °F - 48.2 °F 34% 29.49 in 10.0 mi South 16.1 mph 20.7 mph N/A   Partly Cloudy
3:35 PM 78.8 °F - 48.2 °F 34% 29.49 in 10.0 mi SW 13.8 mph 21.9 mph N/A   Mostly Cloudy
3:55 PM 80.6 °F - 48.2 °F 32% 29.48 in 10.0 mi South 13.8 mph - N/A   Mostly Cloudy
4:15 PM 78.8 °F - 48.2 °F 34% 29.48 in 10.0 mi South 11.5 mph - N/A   Scattered Clouds
4:35 PM 78.8 °F - 48.2 °F 34% 29.48 in 10.0 mi South 16.1 mph 21.9 mph N/A   Partly Cloudy
4:55 PM 78.8 °F - 48.2 °F 34% 29.47 in 10.0 mi SSW 11.5 mph 21.9 mph N/A   Scattered Clouds
5:15 PM 78.8 °F - 48.2 °F 34% 29.47 in 10.0 mi SSW 13.8 mph - N/A   Scattered Clouds
5:35 PM 77.0 °F - 48.2 °F 36% 29.47 in 10.0 mi South 8.1 mph - N/A   Overcast
5:55 PM 75.2 °F - 48.2 °F 38% 29.47 in 10.0 mi South 8.1 mph - N/A   Overcast
6:15 PM 75.2 °F - 48.2 °F 38% 29.46 in 10.0 mi South 6.9 mph - N/A   Mostly Cloudy
6:35 PM 73.4 °F - 48.2 °F 41% 29.47 in 10.0 mi SSW 5.8 mph - N/A   Partly Cloudy
6:55 PM 73.4 °F - 48.2 °F 41% 29.47 in 10.0 mi South 3.5 mph - N/A   Mostly Cloudy
7:15 PM 71.6 °F - 48.2 °F 43% 29.47 in 10.0 mi South 3.5 mph - N/A   Mostly Cloudy
7:35 PM 69.8 °F - 48.2 °F 46% 29.47 in 10.0 mi SSW 4.6 mph - N/A Thunderstorm Partly Cloudy
7:55 PM 69.8 °F - 48.2 °F 46% 29.47 in 10.0 mi South 5.8 mph - N/A   Mostly Cloudy
8:15 PM 69.8 °F - 48.2 °F 46% 29.47 in 7.0 mi SSW 5.8 mph - N/A   Scattered Clouds
8:35 PM 69.8 °F - 48.2 °F 46% 29.47 in 7.0 mi South 6.9 mph - N/A   Clear
8:55 PM 69.8 °F - 48.2 °F 46% 29.46 in 7.0 mi SSE 4.6 mph - N/A   Mostly Cloudy
9:15 PM 69.8 °F - 48.2 °F 46% 29.46 in 10.0 mi South 3.5 mph - N/A Thunderstorm Overcast
9:35 PM 64.4 °F - 46.4 °F 52% 29.49 in 10.0 mi North 12.7 mph 20.7 mph N/A Thunderstorm Overcast
9:55 PM 57.2 °F - 44.6 °F 63% 29.48 in 10.0 mi NNE 15.0 mph 25.3 mph N/A   Overcast
10:15 PM 55.4 °F - 42.8 °F 63% 29.55 in 10.0 mi NW 16.1 mph 24.2 mph N/A Thunderstorm Overcast
10:35 PM 48.2 °F - 42.8 °F 82% 29.60 in 3.0 mi NNW 16.1 mph 27.6 mph N/A Thunderstorm Thunderstorm
10:55 PM 44.6 °F 37.8 °F 39.2 °F 81% 29.61 in 2.5 mi North 15.0 mph 27.6 mph N/A Thunderstorm Overcast
11:15 PM 42.8 °F 35.4 °F 39.2 °F 87% 29.62 in 4.0 mi North 15.0 mph 25.3 mph N/A   Overcast
11:35 PM 42.8 °F 35.8 °F 39.2 °F 87% 29.65 in 5.0 mi NNW 13.8 mph 27.6 mph N/A   Overcast
11:55 PM 42.8 °F 35.8 °F 37.4 °F 81% 29.65 in 10.0 mi North 13.8 mph 24.2 mph N/A   Overcast